Location: *
(35.8942°N, 23.3025°E)
Time: 01:34:02
(UTC+00:00)

Tiangong - Visible Passes

Search period start: 27 November 2022 00:00
Search period end: 07 December 2022 00:00
Orbit: 387 x 394 km, 41.5° (Epoch: 26 November)

Date Brightness Start Highest point End Pass type
(mag) Time Alt. Az. Time Alt. Az. Time Alt. Az.
27 Nov -0.7 16:46:19 10° SSW 16:48:45 27° SSE 16:48:45 27° SSE visible
28 Nov 0.0 15:49:27 10° S 15:51:30 16° SE 15:53:34 10° ESE visible
28 Nov 0.4 17:24:58 10° WSW 17:26:15 22° WSW 17:26:15 22° WSW visible
29 Nov -1.9 16:27:14 10° SW 16:30:22 58° SSE 16:31:19 38° E visible
30 Nov -0.7 17:06:24 10° W 17:08:38 36° WNW 17:08:38 36° WNW visible
01 Dec -2.1 16:08:23 10° WSW 16:11:35 74° NNW 16:13:33 21° ENE visible
02 Dec -1.0 16:47:48 10° WNW 16:50:43 34° NNW 16:50:43 34° NNW visible
03 Dec -1.4 15:49:38 10° W 15:52:42 44° NNW 15:55:31 12° ENE visible
03 Dec 0.9 17:27:15 10° WNW 17:27:50 14° NW 17:27:50 14° NW visible
04 Dec -0.9 16:29:06 10° WNW 16:31:56 29° N 16:32:37 26° NNE visible
05 Dec 0.1 17:08:17 10° WNW 17:09:41 20° NW 17:09:41 20° NW visible
06 Dec -0.9 16:10:10 10° WNW 16:12:59 28° N 16:14:27 20° NE visible
